DW9945 Weather Reports


Display with metric or nautical units.
time (UTC)temp
F
wind
direction
speed
MPH
gust
MPH
rain 1hr
in
rain 24hr
in
rain mn
in
humidity
%
barometer
mb
20260502211507 56 210 0.0 0.0 0.00 0.45 0.45 84 1014.9
20260502211007 57 210 0.0 0.0 0.00 0.45 0.45 82 1014.9
20260502210007 57 210 0.0 0.0 0.00 0.45 0.45 82 1014.9
20260502205506 57 210 0.0 0.0 0.00 0.45 0.45 82 1014.9
20260502205007 57 210 0.0 0.0 0.00 0.45 0.45 82 1014.8
20260502204507 57 210 0.0 0.0 0.00 0.45 0.45 83 1014.7
20260502204007 57 210 0.0 0.0 0.00 0.45 0.45 83 1014.7
20260502203507 57 210 0.0 3.0 0.00 0.45 0.45 85 1014.6
20260502203007 57 222 0.0 0.0 0.00 0.45 0.45 85 1014.6
20260502202507 57 222 0.0 0.0 0.00 0.45 0.45 84 1014.5
20260502202007 57 222 0.0 0.0 0.00 0.45 0.45 84 1014.5
20260502201507 57 222 0.0 0.0 0.00 0.45 0.45 84 1014.3
20260502201007 57 222 0.0 0.0 0.00 0.45 0.45 84 1014.3
20260502200007 57 222 0.0 0.0 0.00 0.45 0.45 83 1014.2
20260502195507 58 222 0.0 0.0 0.00 0.45 0.45 83 1014.2
20260502195007 58 222 0.0 0.0 0.00 0.45 0.45 82 1014.1
20260502194507 59 222 0.0 0.0 0.00 0.45 0.45 81 1013.9
20260502193508 60 214 2.0 3.0 0.00 0.45 0.45 79 1014.0
20260502193007 60 186 0.0 2.0 0.00 0.45 0.45 79 1014.0
20260502192507 60 186 0.0 0.0 0.00 0.45 0.45 79 1014.0
20260502192007 61 186 0.0 2.0 0.00 0.45 0.45 78 1013.9
20260502191507 61 186 0.0 2.0 0.00 0.45 0.45 78 1013.9
20260502191007 61 197 0.0 0.0 0.00 0.45 0.45 78 1013.8
20260502190507 61 211 2.0 3.0 0.00 0.45 0.45 78 1013.8
20260502190007 61 206 2.0 3.0 0.00 0.45 0.45 78 1013.8
20260502185507 61 271 1.0 3.0 0.00 0.45 0.45 78 1013.8
20260502185007 61 287 3.0 6.0 0.00 0.45 0.45 77 1013.9
20260502184010 62 285 2.0 3.0 0.00 0.45 0.45 76 1013.8
20260502183507 62 287 1.0 6.0 0.00 0.45 0.45 76 1013.8
20260502182506 62 287 5.0 7.0 0.00 0.45 0.45 76 1013.8
20260502182006 61 293 3.0 6.0 0.00 0.45 0.45 78 1013.7
20260502181507 61 289 2.0 3.0 0.00 0.45 0.45 79 1013.7
20260502181006 60 290 3.0 7.0 0.00 0.45 0.45 79 1013.9
20260502180507 60 290 2.0 7.0 0.00 0.45 0.45 79 1013.7
20260502170507 60 294 7.0 10.0 0.00 0.45 0.45 78 1014.1
20260502164007 59 306 11.0 17.0 0.00 0.45 0.45 80 1013.9
20260502163506 59 316 11.0 15.0 0.00 0.45 0.45 81 1014.0
20260502162507 59 298 11.0 15.0 0.00 0.45 0.45 81 1014.1
20260502162007 60 293 12.0 18.0 0.00 0.45 0.45 80 1014.1
20260502161506 60 295 12.0 20.0 0.00 0.45 0.45 81 1014.1
20260502161006 60 306 16.0 24.0 0.00 0.45 0.45 80 1014.1
20260502152006 65 150 3.0 8.0 0.00 0.45 0.45 77 1013.9
20260502151507 65 189 4.0 9.0 0.00 0.45 0.45 77 1013.9
20260502151007 65 182 3.0 5.0 0.00 0.45 0.45 76 1013.8
20260502150507 65 142 1.0 3.0 0.00 0.45 0.45 77 1014.0
20260502130506 57 227 11.0 18.0 0.17 0.37 0.37 83 1016.1
20260502123506 64 175 8.0 15.0 0.00 0.20 0.20 71 1015.7
20260502123007 64 180 10.0 16.0 0.00 0.20 0.20 71 1015.7
20260502122506 64 193 10.0 16.0 0.00 0.20 0.20 71 1015.6
20260502121507 64 166 7.0 10.0 0.00 0.20 0.20 73 1016.0
20260502121006 64 183 9.0 14.0 0.00 0.20 0.20 72 1016.1
20260502120506 63 181 9.0 12.0 0.00 0.20 0.20 73 1016.1
20260502115506 63 174 7.0 13.0 0.00 0.20 0.20 77 1016.1
20260502115006 63 182 7.0 12.0 0.00 0.20 0.20 78 1016.2
20260502114506 62 175 7.0 12.0 0.00 0.20 0.20 78 1016.2
20260502113506 62 190 6.0 12.0 0.00 0.20 0.20 81 1016.5
20260502113007 61 183 6.0 12.0 0.00 0.20 0.20 82 1016.5
20260502112506 61 169 5.0 10.0 0.00 0.20 0.20 83 1016.6
20260502112006 61 198 3.0 7.0 0.00 0.20 0.20 84 1016.6
20260502111506 61 202 3.0 10.0 0.00 0.20 0.20 85 1016.7
20260502110506 60 187 1.0 6.0 0.00 0.20 0.20 86 1016.9
20260502105507 60 187 3.0 6.0 0.00 0.20 0.20 86 1017.3
20260502105006 60 191 2.0 3.0 0.01 0.20 0.20 86 1017.2
20260502104506 60 151 0.0 3.0 0.02 0.20 0.20 87 1017.1
20260502104006 60 151 2.0 5.0 0.02 0.20 0.20 87 1017.3
20260502103506 60 174 0.0 1.0 0.02 0.20 0.20 88 1017.3
20260502103007 59 174 2.0 3.0 0.02 0.20 0.20 88 1017.4
20260502102507 59 173 3.0 6.0 0.02 0.20 0.20 87 1017.4
20260502101508 59 195 3.0 6.0 0.02 0.20 0.20 87 1017.7
20260502101008 59 186 1.0 5.0 0.02 0.20 0.20 88 1017.7
20260502100508 59 174 3.0 6.0 0.02 0.20 0.20 87 1017.7
20260502091509 58 135 3.0 6.0 0.02 0.19 0.19 90 1017.7
20260502091008 58 122 2.0 3.0 0.02 0.19 0.19 90 1017.7
20260502090508 57 113 2.0 3.0 0.03 0.19 0.19 90 1017.8
20260502071508 57 148 1.0 3.0 0.08 0.08 0.08 89 1017.6
20260502071008 57 154 2.0 5.0 0.08 0.08 0.08 88 1017.7
20260502070008 57 182 0.0 0.0 0.08 0.08 0.08 87 1017.8
20260502065508 57 182 0.0 3.0 0.07 0.07 0.07 88 1017.8
20260502065008 57 173 2.0 3.0 0.06 0.06 0.06 86 1018.0
20260502064508 57 190 3.0 6.0 0.06 0.06 0.06 85 1017.8
20260502064008 58 206 3.0 8.0 0.04 0.04 0.04 84 1018.2
20260502063508 58 191 7.0 10.0 0.02 0.02 0.02 82 1018.2
20260502063008 58 209 6.0 12.0 0.00 0.00 0.00 81 1018.3
20260502062008 58 201 3.0 5.0 0.00 0.00 0.00 81 1017.9
20260502061008 58 132 1.0 3.0 0.00 0.00 0.00 81 1017.5
20260502060508 58 134 2.0 5.0 0.00 0.00 0.00 81 1017.3
20260502060008 58 156 1.0 3.0 0.00 0.00 0.00 81 1017.2
20260502055508 58 162 0.0 5.0 0.00 0.00 0.00 82 1017.2
20260502055008 58 155 1.0 3.0 0.00 0.00 0.00 82 1017.2
20260502054508 58 155 2.0 7.0 0.00 0.00 0.00 81 1017.1
20260502054008 58 136 2.0 6.0 0.00 0.00 0.00 81 1017.1
20260502053008 58 163 4.0 7.0 0.00 0.00 0.00 81 1017.3
20260502052507 58 147 2.0 5.0 0.00 0.00 0.00 81 1017.3
20260502052007 59 172 2.0 5.0 0.00 0.00 0.00 81 1017.5
20260502051508 59 181 4.0 6.0 0.00 0.00 0.00 80 1017.5
20260502051008 59 188 3.0 6.0 0.00 0.00 0.00 80 1017.6
20260502050508 59 175 3.0 8.0 0.00 0.00 0.00 80 1017.6
20260502050008 59 156 3.0 6.0 0.00 0.00 0.00 80 1017.6
20260502045508 59 155 3.0 6.0 0.00 0.00 0.00 80 1017.6
20260502045007 59 174 3.0 6.0 0.00 0.00 0.00 80 1017.6
20260502044508 59 188 3.0 6.0 0.00 0.00 0.00 80 1017.6
20260502044008 59 180 2.0 6.0 0.00 0.00 0.00 80 1017.6
20260502043008 59 191 2.0 7.0 0.00 0.00 0.00 80 1017.6
20260502042508 59 126 2.0 3.0 0.00 0.00 0.00 80 1017.4
20260502041008 59 167 5.0 6.0 0.00 0.00 0.00 80 1017.7
20260502040508 59 182 3.0 8.0 0.00 0.00 0.00 80 1017.7
20260502040008 59 155 1.0 5.0 0.00 0.00 0.00 80 1017.8
20260502035508 59 140 2.0 5.0 0.00 0.00 0.00 80 1017.8
20260502035008 58 176 2.0 7.0 0.00 0.00 0.00 80 1017.9
20260502034507 58 169 3.0 5.0 0.00 0.00 0.00 81 1018.0
20260502033507 58 178 0.0 0.0 0.00 0.00 0.00 81 1017.9
20260502032508 59 178 0.0 0.0 0.00 0.00 0.00 79 1018.0
20260502032008 59 178 0.0 0.0 0.00 0.00 0.00 79 1018.0
20260502031507 59 178 0.0 0.0 0.00 0.00 0.00 79 1018.1
20260502031008 59 178 0.0 3.0 0.00 0.00 0.00 79 1018.0
20260502030507 59 211 0.0 0.0 0.00 0.00 0.00 79 1017.9
20260502030013 59 211 2.0 3.0 0.00 0.00 0.00 79 1017.9
20260502025509 59 158 1.0 5.0 0.00 0.00 0.00 79 1018.0
20260502025008 59 158 0.0 2.0 0.00 0.00 0.00 79 1018.1
20260502024507 59 158 0.0 1.0 0.00 0.00 0.00 78 1018.0
20260502024007 59 158 1.0 2.0 0.00 0.00 0.00 78 1018.0
20260502023508 59 158 0.0 0.0 0.00 0.00 0.00 78 1017.9
20260502023008 59 192 0.0 0.0 0.00 0.00 0.00 78 1017.9
20260502022508 59 192 1.0 3.0 0.00 0.00 0.00 78 1017.9
20260502022007 59 165 1.0 7.0 0.00 0.00 0.00 78 1018.0
20260502021508 59 155 3.0 8.0 0.00 0.00 0.00 78 1017.9
20260502021008 59 162 5.0 10.0 0.00 0.00 0.00 78 1017.9
20260502020008 60 164 5.0 10.0 0.00 0.00 0.00 77 1018.0
20260502015507 60 165 5.0 12.0 0.00 0.00 0.00 77 1018.0
20260502015007 59 174 5.0 8.0 0.00 0.00 0.00 77 1018.1
20260502014508 59 150 4.0 7.0 0.00 0.00 0.00 77 1017.8
20260502013008 60 155 5.0 8.0 0.00 0.00 0.00 77 1018.0
20260502012508 60 157 2.0 5.0 0.00 0.00 0.00 77 1018.2
20260502012007 60 171 2.0 6.0 0.00 0.00 0.00 77 1018.3
20260502011508 60 171 3.0 7.0 0.00 0.00 0.00 77 1018.4
20260502011007 60 157 4.0 12.0 0.00 0.00 0.00 76 1018.4
20260502010509 60 165 4.0 12.0 0.00 0.00 0.00 76 1018.5
20260502010008 60 152 6.0 14.0 0.00 0.00 0.00 76 1018.5
20260502005507 61 157 6.0 12.0 0.00 0.00 0.00 76 1018.5
20260502005007 61 173 7.0 14.0 0.00 0.00 0.00 75 1018.4
20260502004508 61 152 7.0 16.0 0.00 0.00 0.00 75 1018.4
20260502004007 61 150 5.0 12.0 0.00 0.00 0.00 75 1018.3
20260502003508 61 147 6.0 12.0 0.00 0.00 0.00 75 1018.4
20260502003008 61 141 5.0 12.0 0.00 0.00 0.00 75 1018.4
20260502002507 61 152 4.0 7.0 0.00 0.00 0.00 75 1018.5
20260502002007 61 157 3.0 7.0 0.00 0.00 0.00 75 1018.5
20260502001508 61 160 6.0 12.0 0.00 0.00 0.00 75 1018.6
20260502000508 61 156 6.0 10.0 0.00 0.00 0.00 74 1018.7
20260502000008 61 171 6.0 12.0 0.00 0.00 0.00 74 1018.8
20260501234508 62 192 6.0 12.0 0.00 0.00 0.00 74 1019.0
20260501234007 62 191 6.0 10.0 0.00 0.00 0.00 73 1019.0
20260501233507 62 183 5.0 10.0 0.00 0.00 0.00 73 1019.0
20260501232507 62 190 6.0 9.0 0.00 0.00 0.00 73 1019.1
20260501231507 62 170 4.0 9.0 0.00 0.00 0.00 73 1019.1
20260501230008 62 192 5.0 9.0 0.00 0.00 0.00 72 1019.1
20260501225507 63 189 5.0 8.0 0.00 0.00 0.00 72 1019.0
20260501225007 63 200 3.0 8.0 0.00 0.00 0.00 71 1019.0
20260501224508 63 194 6.0 9.0 0.00 0.00 0.00 71 1019.0
20260501224007 63 195 6.0 9.0 0.00 0.00 0.00 71 1019.0
20260501223007 63 187 6.0 9.0 0.00 0.00 0.00 70 1018.9
20260501222508 64 198 5.0 10.0 0.00 0.00 0.00 70 1018.9
20260501222007 64 178 6.0 12.0 0.00 0.00 0.00 70 1018.9
20260501221507 64 180 8.0 22.0 0.00 0.00 0.00 69 1018.9
20260501220508 64 173 6.0 13.0 0.00 0.00 0.00 69 1018.8
20260501215508 65 170 5.0 12.0 0.00 0.00 0.00 68 1018.8
20260501215007 65 185 6.0 15.0 0.00 0.00 0.00 68 1018.8
20260501214507 65 171 10.0 17.0 0.00 0.00 0.00 68 1018.7
20260501214007 65 178 8.0 14.0 0.00 0.00 0.00 67 1018.6
20260501213507 66 166 8.0 15.0 0.00 0.00 0.00 67 1018.6
20260501213007 66 186 9.0 21.0 0.00 0.00 0.00 67 1018.6
20260501212507 66 176 9.0 14.0 0.00 0.00 0.00 66 1018.5